Regional Weather Roundup
Issued by NWS

Home | Current Version | Previous Version | Graphics & Text | Print | Product List | Glossary On
Versions: 1 2 3 4 5 6 7 8 9 10 11 12 13 14 15 16 17 18 19 20 21 22 23 24 25 26 27 28 29 30 31 32 33 34 35 36 37 38 39 40 41 42 43 44 45 46 47 48 49 50
000
ASUS43 KBIS 161810
RWRND

NORTH DAKOTA REGIONAL WEATHER ROUNDUP
NATIONAL WEATHER SERVICE BISMARCK ND
100 PM CDT WED APR 16 2014

NOTE: "FAIR" INDICATES FEW OR NO CLOUDS BELOW 12,000 FEET WITH NO
SIGNIFICANT WEATHER AND/OR OBSTRUCTIONS TO VISIBILITY.


NDZ001>003-009>011-017-161900-
NORTHWEST NORTH DAKOTA

CITY           SKY/WX    TMP DP  RH WIND       PRES   REMARKS
WILLISTON      CLOUDY    27  21  78 E16       30.15R WCI  15
6HR MIN TEMP:  25; 6HR MAX TEMP:  27;

MINOT          LGT SNOW  26  20  77 NE10      30.16R WCI  16
MINOT AFB      LGT SNOW  28  20  74 E9        30.17R WCI  19
$$

NDZ018>021-031>035-040>046-161900-
SOUTHWEST NORTH DAKOTA

CITY           SKY/WX    TMP DP  RH WIND       PRES   REMARKS
BISMARCK       CLOUDY    30  21  69 NE15      30.09R WCI  19
6HR MIN TEMP:  28; 6HR MAX TEMP:  30;

DICKINSON      CLOUDY    27  21  78 NE9       30.04R WCI  18
GARRISON         N/A     26  19  74 E13       30.12R WCI  15
6HR MIN TEMP:  24; 6HR MAX TEMP:  27; 6HR PCP:  0.02;

HETTINGER ARPT CLOUDY    29  21  72 NE12      30.03R WCI  19
$$

NDZ004>008-012>016-024-026-027-054-161900-
NORTHEAST NORTH DAKOTA

CITY           SKY/WX    TMP DP  RH WIND       PRES   REMARKS
GRAND FORKS    FAIR      40   7  25 NE20G26   30.09S
GRND FRKS AFB  FAIR      40   9  28 E14G25    30.13S
DEVILS LAKE    FAIR      36  10  35 NE21      30.13R
$$

NDZ022-023-025-028>030-036>039-047>053-161900-
SOUTHEAST NORTH DAKOTA

CITY           SKY/WX    TMP DP  RH WIND       PRES   REMARKS
FARGO          CLOUDY    32  23  69 NE16      30.06R
6HR MIN TEMP:  28; 6HR MAX TEMP:  32; 6HR PCP: TRACE;

JAMESTOWN      CLOUDY    31  20  63 NE17      30.06R WCI  19
$$




USA.gov is the U.S. government's official web portal to all federal, state and local government web resources and services.